TimeEST,TemperatureF,Dew PointF,Humidity,Sea Level PressureIn,VisibilityMPH,Wind Direction,Wind SpeedMPH,Gust SpeedMPH,PrecipitationIn,Events,Conditions,WindDirDegrees,DateUTC
12:55 AM,38.7,21.6,50,29.81,10.0,West,12.7,-,N/A,,Clear,280,2012-12-22 05:55:00
1:55 AM,37.8,21.2,51,29.83,10.0,West,11.5,-,N/A,,Clear,280,2012-12-22 06:55:00
2:55 AM,37.9,19.9,48,29.85,10.0,WNW,10.4,-,N/A,,Clear,290,2012-12-22 07:55:00
3:55 AM,37.2,20.8,52,29.86,10.0,West,11.5,-,N/A,,Clear,260,2012-12-22 08:55:00
4:55 AM,36.5,21.7,55,29.87,10.0,West,11.5,-,N/A,,Clear,270,2012-12-22 09:55:00
5:55 AM,36.0,21.9,57,29.90,10.0,West,10.4,-,N/A,,Clear,260,2012-12-22 10:55:00
6:55 AM,35.1,21.9,59,29.94,10.0,West,11.5,-,N/A,,Clear,260,2012-12-22 11:55:00
7:55 AM,34.5,22.8,62,29.97,10.0,WSW,9.2,-,N/A,,Clear,250,2012-12-22 12:55:00
8:55 AM,38.3,21.6,51,30.00,10.0,West,15.0,21.9,N/A,,Clear,280,2012-12-22 13:55:00
9:55 AM,41.4,21.7,46,30.02,10.0,West,12.7,18.4,N/A,,Clear,280,2012-12-22 14:55:00
10:55 AM,43.9,21.7,41,30.03,10.0,WNW,15.0,24.2,N/A,,Clear,290,2012-12-22 15:55:00
11:55 AM,45.9,20.5,37,30.00,10.0,West,16.1,27.6,N/A,,Clear,280,2012-12-22 16:55:00
12:55 PM,47.3,20.5,35,29.99,10.0,West,16.1,-,N/A,,Clear,270,2012-12-22 17:55:00
1:55 PM,48.2,20.5,33,29.99,10.0,West,9.2,20.7,N/A,,Clear,280,2012-12-22 18:55:00
2:55 PM,49.3,20.1,32,29.99,10.0,WNW,11.5,-,N/A,,Clear,300,2012-12-22 19:55:00
3:55 PM,49.8,20.5,32,30.00,10.0,West,11.5,-,N/A,,Clear,260,2012-12-22 20:55:00
4:55 PM,47.3,21.9,37,30.02,10.0,WSW,13.8,-,N/A,,Clear,250,2012-12-22 21:55:00
5:55 PM,42.3,22.6,46,30.04,10.0,WSW,5.8,-,N/A,,Clear,240,2012-12-22 22:55:00
6:55 PM,41.5,23.2,48,30.06,10.0,Calm,Calm,-,N/A,,Clear,0,2012-12-22 23:55:00
7:55 PM,39.2,23.7,54,30.07,10.0,West,8.1,-,N/A,,Clear,260,2012-12-23 00:55:00
8:55 PM,37.4,23.9,58,30.08,10.0,SW,3.5,-,N/A,,Clear,230,2012-12-23 01:55:00
9:55 PM,37.6,22.8,55,30.08,10.0,SW,3.5,-,N/A,,Clear,220,2012-12-23 02:55:00
10:55 PM,37.0,22.5,56,30.09,10.0,SW,5.8,-,N/A,,Clear,230,2012-12-23 03:55:00
11:55 PM,35.6,23.4,61,30.09,10.0,West,5.8,-,N/A,,Clear,260,2012-12-23 04:55:00